Weather Service Report


861 
ASUS44 KOUN 191210
RWROK 

WEATHER ROUNDUP FOR OKLAHOMA
NATIONAL WEATHER SERVICE NORMAN OK
700 AM CDT SAT APR 19 2014

NOTE: "FAIR" INDICATES FEW OR NO CLOUDS BELOW 12,000 FEET WITH NO
      SIGNIFICANT WEATHER AND/OR OBSTRUCTIONS TO VISIBILITY.

OKZ001>007-009>012-014-015-017-191300-
NORTHWEST OKLAHOMA AND THE PANHANDLE
  
CITY           SKY/WX    TMP DP  RH WIND       PRES   REMARKS
GAGE           PTCLDY    54  47  77 S18G28    30.07R                  
6HR MIN TEMP:  54; 6HR MAX TEMP:  56;                                

ENID/VANCE AFB PTCLDY    49  49  99 SE7       30.11R                  
ENID/WOODRING  MOCLDY    43  39  87 S9        30.10R                  
$$

OKZ016-021>023-033>039-044-045-191300-
SOUTHWEST OKLAHOMA
  
CITY           SKY/WX    TMP DP  RH WIND       PRES   REMARKS
LAWTON/REGL    MOCLDY    46  44  93 CALM      30.14R                  
6HR MIN TEMP:  44; 6HR MAX TEMP:  52;                                

LAWTON/FT SILL MOCLDY    50  45  81 S2        30.13R                  
FREDERICK      PTCLDY    50  48  93 SE7       30.10R                  
CLINTON        CLOUDY    53  48  83 S12       30.13R                  
HOBART         MOCLDY    50  47  89 S5        30.13R                  
ALTUS AFB      PTCLDY    46  46 100 E5        30.12R                  
$$

OKZ018>020-024>031-191300-
CENTRAL OKLAHOMA
  
CITY           SKY/WX    TMP DP  RH WIND       PRES   REMARKS
OKLAHOMA CITY  MOCLDY    48  41  76 SE8G29    30.14R                  
6HR MIN TEMP:  47; 6HR MAX TEMP:  54;                                

OKC/WILEY POST PTCLDY    52  42  69 S8        30.14R                  
OKC/TINKER AFB PTCLDY    50  44  79 SE7       30.15R                  
STILLWATER     PTCLDY    48  42  80 SE7       30.14R                  
GUTHRIE        PTCLDY    55  43  63 S6        30.14R                  
$$

OKZ008-013-054>072-191300-
NORTHEAST OKLAHOMA
  
CITY           SKY/WX    TMP DP  RH WIND       PRES   REMARKS
TULSA          MOCLDY    49  44  83 SE5       30.16R                  
6HR MIN TEMP:  48; 6HR MAX TEMP:  57;                                

TULSA/JONES    PTCLDY    46  43  89 CALM      30.18R                  
PONCA CITY     MOCLDY    54  41  61 SE10      30.13R                  
BARTLESVILLE   PTCLDY    38  37  97 CALM      30.17R FOG              
MUSKOGEE       PTCLDY    50  44  80 S7        30.19R                  
$$

OKZ032-040>043-046>053-073>077-191300-
SOUTH CENTRAL/SOUTHEAST OKLAHOMA
  
CITY           SKY/WX    TMP DP  RH WIND       PRES   REMARKS
ARDMORE/DWNTWN   N/A     46  45  93 CALM      30.16R                  
MCALESTER      CLEAR     51  45  79 CALM      30.18R                  
$$


Return to Home page


Western Regional Climate Center, wrcc@dri.edu